Waarnemingen

Advertentie
Mijn weer
Cuxhaven, Duitsland (10131): temperatuur & dauwpunt: 11.12.2018 01:00:00 - 17.12.2018 01:00:00 (CET)Cuxhaven, Duitsland (10131): temperatuur 5cm: 11.12.2018 01:00:00 - 17.12.2018 01:00:00 (CET)Cuxhaven, Duitsland (10131): windsnelheid & windstoten: 11.12.2018 01:00:00 - 17.12.2018 01:00:00 (CET)Cuxhaven, Duitsland (10131): windrichting: 11.12.2018 01:00:00 - 17.12.2018 01:00:00 (CET)Cuxhaven, Duitsland (10131): luchtdruk: 11.12.2018 01:00:00 - 17.12.2018 01:00:00 (CET)Cuxhaven, Duitsland (10131): zicht: 11.12.2018 01:00:00 - 17.12.2018 01:00:00 (CET)Cuxhaven, Duitsland (10131): Zonneschijnduur: 11.12.2018 01:00:00 - 17.12.2018 01:00:00 (CET)Cuxhaven, Duitsland (10131): neerslag: 11.12.2018 01:00:00 - 17.12.2018 01:00:00 (CET)
Datum & Tijd tt [°C] td [°C] tt 5cm [°C] ff [km/u] ff [kn] fx [km/u] fx [kn] dd ppp [hPa] vv [km] sd [min] rr [mm]
17.12.2018 01:00:00 -0,3 -1,0 -0,3 7 4 15 8 ZO 1014,2 3,3 0 0,0
17.12.2018 00:00:00 -0,4 -1,3 -0,6 8 5 18 10 ZO 1013,9 3,6 0 0,1
16.12.2018 23:00:00 -0,5 -1,7 -0,7 6 4 18 10 ZZO 1013,7 3,3 0 0,0
16.12.2018 22:00:00 -0,5 -1,7 -0,8 9 5 20 11 ZO 1013,3 5 0 0,1
16.12.2018 21:00:00 -0,4 -2,0 -0,6 14 8 19 10 ZO 1012,9 3,0 0 0,1
16.12.2018 20:00:00 -0,5 -2,3 -0,6 10 5 25 13 ZZO 1012,6 6 0 0,0
16.12.2018 19:00:00 -0,4 -1,8 -0,6 10 6 21 11 ZO 1012,3 6 0 0,0
16.12.2018 18:00:00 -0,5 -2,0 -0,7 9 5 22 12 ZO 1012,0 4,6 0 0,0
16.12.2018 17:00:00 -0,4 -2,0 -0,6 8 4 23 12 ZO 1011,9 5 0 0,0
16.12.2018 16:00:00 -0,1 -2,4 -0,2 15 8 27 14 ZO 1011,6 6 0 0,0
16.12.2018 15:00:00 -0,2 -2,3 -0,2 15 8 29 16 ZO 1011,5 6 0 0,0
16.12.2018 14:00:00 -0,2 -2,0 -0,1 19 11 33 18 ZO 1011,7 6 0 0,0
16.12.2018 13:00:00 -0,6 -2,3 -0,5 18 10 36 19 ZO 1011,8 3,8 0 0,1
16.12.2018 12:00:00 0,2 -3,5 0,0 20 11 41 22 ZO 1012,3 8 0 0,0
16.12.2018 11:00:00 0,1 -3,6 0,0 16 9 40 21 ZO 1013,0 9 0 0,0
16.12.2018 10:00:00 -0,2 -3,6 -0,6 26 14 38 21 ZO 1012,8 9 0 0,0
16.12.2018 09:00:00 -0,5 -3,5 -1,0 25 14 46 25 ZO 1013,0 9 0 0,0
16.12.2018 08:00:00 -0,6 -3,2 -1,1 32 17 48 26 ZO 1013,2 8 0 0,0
16.12.2018 07:00:00 -0,8 -3,6 -1,4 29 15 55 30 ZO 1013,8 8 0 0,0
16.12.2018 06:00:00 -0,7 -3,5 -1,2 35 19 55 30 ZO 1014,1 9 0 0,0
16.12.2018 05:00:00 -0,8 -3,7 -1,7 29 16 59 32 ZO 1015,2 9 0 0,0
16.12.2018 04:00:00 -0,9 -3,9 -1,8 37 20 54 29 ZO 1015,9 10 0 0,0
16.12.2018 03:00:00 -0,8 -3,8 -1,8 29 16 55 30 ZO 1016,9 11 0 0,0
16.12.2018 02:00:00 -0,4 -4,1 -1,3 31 17 52 28 ZO 1017,4 13 0 0,0
16.12.2018 01:00:00 -0,1 -4,1 -0,7 36 19 59 32 ZO 1017,8 14 0 0,0
16.12.2018 00:00:00 -0,1 -4,2 -0,3 29 15 53 29 ZO 1019,0 16 0 0,0
15.12.2018 23:00:00 -0,2 -3,6 -0,6 31 17 55 30 ZO 1020,0 16 0 0,0
15.12.2018 22:00:00 0,0 -3,6 -0,6 33 18 55 30 ZO 1021,0 13 0 0,0
15.12.2018 21:00:00 0,2 -4,1 -0,2 28 15 52 28 ZO 1022,0 14 0 0,0
15.12.2018 20:00:00 0,1 -4,8 -0,3 25 14 57 31 ZO 1022,9 15 0 0,0
15.12.2018 19:00:00 0,0 -4,8 -0,3 23 12 57 31 ZO 1024,2 19 0 0,0
15.12.2018 18:00:00 0,2 -4,2 -0,1 26 14 49 26 ZO 1024,7 16 0 0,0
15.12.2018 17:00:00 0,3 -5,0 0,0 24 13 42 23 ZO 1025,6 22 0 0,0
15.12.2018 16:00:00 0,5 -4,6 0,2 24 13 47 26 ZO 1026,4 25 0 0,0
15.12.2018 15:00:00 0,8 -4,6 0,5 17 9 42 23 ZO 1027,0 21 0 0,0
15.12.2018 14:00:00 1,1 -3,4 1,0 21 11 34 18 ZO 1027,5 14 0 0,0
15.12.2018 13:00:00 0,9 -2,2 1,1 19 10 32 18 ZO 1027,9 8 0 0,0
15.12.2018 12:00:00 0,9 -1,6 1,0 18 10 38 21 ZO 1028,5 7 0 0,0
15.12.2018 11:00:00 0,7 -1,7 0,7 26 14 35 19 ZO 1029,0 7 0 0,0
15.12.2018 10:00:00 0,7 -1,6 0,4 25 13 33 18 OZO 1028,9 8 0 0,0
15.12.2018 09:00:00 0,7 -2,1 0,2 16 8 33 18 OZO 1028,8 11 0 0,0
15.12.2018 08:00:00 0,8 -2,2 0,4 23 12 32 17 ZO 1028,8 13 0 0,0
15.12.2018 07:00:00 0,9 -2,1 0,5 16 9 29 15 ZO 1028,9 14 0 0,0
15.12.2018 06:00:00 0,6 -2,2 0,1 16 9 26 14 ZO 1028,9 13 0 0,0
15.12.2018 05:00:00 0,8 -1,8 0,3 16 9 26 14 ZO 1028,8 13 0 0,0
15.12.2018 04:00:00 0,6 -1,6 0,1 9 5 21 11 ZO 1028,9 10 0 0,0
15.12.2018 03:00:00 0,9 -1,5 0,4 13 7 23 13 ZO 1029,0 10 0 0,0
15.12.2018 02:00:00 0,9 -1,5 0,5 14 8 28 15 ZO 1028,6 9 0 0,0
15.12.2018 01:00:00 1,2 -1,1 0,7 14 8 27 15 ZO 1028,4 9 0 0,0
15.12.2018 00:00:00 1,2 -1,0 0,8 10 6 19 10 ZO 1028,4 9 0 0,0
14.12.2018 23:00:00 1,3 -1,0 0,8 11 6 22 12 ZO 1028,5 11 0 0,0
14.12.2018 22:00:00 1,6 -1,2 1,2 16 9 27 15 ZO 1028,6 12 0 0,0
14.12.2018 21:00:00 1,9 -1,5 1,3 18 10 26 14 OZO 1028,3 15 0 0,0
14.12.2018 20:00:00 2,2 -2,2 1,7 20 11 27 15 O 1028,0 21 0 0,0
14.12.2018 19:00:00 2,3 -1,8 1,7 21 11 28 15 O 1027,7 22 0 0,0
14.12.2018 18:00:00 2,3 -2,4 1,8 20 11 31 17 O 1027,6 31 0 0,0
14.12.2018 17:00:00 2,6 -1,9 2,0 19 10 29 16 O 1027,8 31 0 0,0
14.12.2018 16:00:00 2,8 -1,6 2,2 26 14 36 19 O 1027,3 31 0 0,0
14.12.2018 15:00:00 2,7 -1,7 2,3 26 14 35 19 O 1026,9 38 0 0,0
14.12.2018 14:00:00 2,9 -1,8 2,6 21 12 31 17 OZO 1026,8 40 0 0,0
14.12.2018 13:00:00 2,9 -1,4 2,9 14 8 28 15 OZO 1026,7 37 0 0,0
14.12.2018 12:00:00 2,5 0,5 2,7 21 11 32 18 OZO 1027,0 28 0 0,0
14.12.2018 11:00:00 2,6 0,7 2,5 18 10 27 14 O 1027,0 23 0 0,0
14.12.2018 10:00:00 2,6 0,7 2,4 21 11 27 15 O 1026,7 28 0 0,0
14.12.2018 09:00:00 2,6 0,8 2,1 20 11 29 16 O 1026,3 25 0 0,0
14.12.2018 08:00:00 2,6 0,8 2,0 21 11 29 16 O 1025,8 21 0 0,0
14.12.2018 07:00:00 2,5 0,7 2,0 22 12 36 19 O 1025,6 25 0 0,0
14.12.2018 06:00:00 2,5 0,6 2,0 28 15 36 20 O 1025,6 31 0 0,0
14.12.2018 05:00:00 2,4 0,6 1,9 23 12 29 16 O 1025,7 36 0 0,0
14.12.2018 04:00:00 2,5 0,5 2,0 20 11 31 17 ONO 1025,8 36 0 0,0
14.12.2018 03:00:00 2,6 0,8 2,1 24 13 35 19 ONO 1025,9 37 0 0,0
14.12.2018 02:00:00 2,5 1,0 2,0 23 13 30 16 ONO 1025,7 38 0 0,0
14.12.2018 01:00:00 2,6 1,1 2,1 26 14 32 17 O 1025,8 42 0 0,0
14.12.2018 00:00:00 2,8 1,1 2,2 23 12 29 16 ONO 1025,7 37 0 0,0
13.12.2018 23:00:00 3,2 1,2 2,6 23 13 34 19 O 1025,6 42 0 0,0
13.12.2018 22:00:00 3,3 1,6 2,7 24 13 36 19 O 1025,7 32 0 0,0
13.12.2018 21:00:00 3,4 1,3 2,6 26 14 35 19 O 1025,1 36 0 0,0
13.12.2018 20:00:00 3,6 1,8 3,0 22 12 36 19 O 1025,0 26 0 0,0
13.12.2018 19:00:00 3,8 1,8 3,2 26 14 32 18 O 1024,8 24 0 0,0
13.12.2018 18:00:00 3,5 2,3 3,0 18 10 26 14 ONO 1024,8 23 0 0,0
13.12.2018 17:00:00 3,6 1,5 3,2 16 9 25 13 NO 1024,8 33 0 0,0
13.12.2018 16:00:00 3,2 0,7 2,8 13 7 21 11 NO 1024,9 44 24 0,0
13.12.2018 15:00:00 2,8 0,2 2,2 11 6 20 11 NO 1025,2 44 1 0,0
13.12.2018 14:00:00 2,8 -0,1 3,5 15 8 23 12 O 1025,6 29 57 0,0
13.12.2018 13:00:00 2,6 -0,5 4,0 15 8 22 12 ONO 1025,9 29 7 0,0
13.12.2018 12:00:00 2,2 -1,0 2,6 19 10 29 16 O 1026,5 46 0 0,0
13.12.2018 11:00:00 2,3 -1,4 2,4 25 14 32 17 O 1026,6 54 0 0,0
13.12.2018 10:00:00 2,2 -0,8 2,1 23 12 37 20 ONO 1026,6 37 0 0,0
13.12.2018 09:00:00 2,4 -0,6 2,0 25 13 37 20 O 1026,5 38 0 0,0
13.12.2018 08:00:00 2,8 -0,1 2,4 26 14 37 20 O 1026,4 46 0 0,0
13.12.2018 07:00:00 3,2 0,7 2,8 30 16 41 22 O 1026,5 57 0 0,0
13.12.2018 06:00:00 3,3 0,9 3,0 30 16 40 22 O 1026,7 54 0 0,0
13.12.2018 05:00:00 3,6 1,6 3,3 33 18 40 22 O 1027,0 43 0 0,0
13.12.2018 04:00:00 3,8 2,1 3,5 30 16 37 20 O 1027,3 34 0 0,0
13.12.2018 03:00:00 3,8 2,4 3,5 27 15 34 18 O 1027,7 25 0 0,0
13.12.2018 02:00:00 3,7 2,2 3,4 26 14 35 19 O 1027,6 36 0 0,0
13.12.2018 01:00:00 3,9 2,2 3,6 25 14 33 18 O 1027,7 41 0 0,0
13.12.2018 00:00:00 3,9 2,0 3,5 23 12 29 16 O 1028,0 26 0 0,0
12.12.2018 23:00:00 3,8 1,7 3,4 21 12 28 15 ONO 1028,3 33 0 0,0
12.12.2018 22:00:00 3,9 1,4 3,4 21 11 26 14 ONO 1028,3 34 0 0,0
12.12.2018 21:00:00 3,8 0,9 3,1 16 8 24 13 ONO 1028,4 44 0 0,0
12.12.2018 20:00:00 3,9 0,3 2,0 20 11 37 20 O 1028,2 63 0 0,0
12.12.2018 19:00:00 3,8 1,0 1,9 24 13 29 16 ONO 1028,0 45 0 0,0
12.12.2018 18:00:00 3,9 1,6 1,7 18 10 25 14 ONO 1027,9 31 0 0,0
12.12.2018 17:00:00 4,0 1,5 2,0 14 8 28 15 ONO 1027,9 35 0 0,0
12.12.2018 16:00:00 4,7 1,7 3,7 23 12 32 18 ONO 1027,9 33 0 0,0
12.12.2018 15:00:00 4,8 2,9 4,6 17 9 27 15 NO 1027,8 25 0 0,0
12.12.2018 14:00:00 4,8 2,9 4,7 14 8 22 12 NO 1027,9 22 0 0,0
12.12.2018 13:00:00 4,5 3,0 4,3 13 7 19 10 NO 1028,0 15 0 0,0
12.12.2018 12:00:00 4,3 2,8 4,0 5 3 18 10 N 1028,1 19 0 0,1
12.12.2018 11:00:00 4,3 2,4 3,9 12 6 22 12 NO 1028,1 17 0 0,0
12.12.2018 10:00:00 4,6 2,2 4,2 9 5 22 12 NO 1027,6 31 0 0,0
12.12.2018 09:00:00 4,4 2,0 4,1 16 9 27 15 NO 1027,3 39 0 0,0
12.12.2018 08:00:00 4,5 2,1 3,7 11 6 18 10 NO 1026,9 41 0 0,0
12.12.2018 07:00:00 4,4 2,0 3,7 14 8 23 12 NO 1026,4 9 0 0,0
12.12.2018 06:00:00 4,6 1,8 4,2 16 8 26 14 NO 1026,0 49 0 0,0
12.12.2018 05:00:00 4,8 2,2 4,3 19 10 30 16 NO 1025,6 44 0 0,0
12.12.2018 04:00:00 4,8 2,2 4,4 12 6 25 13 NNO 1025,5 51 0 0,0
12.12.2018 03:00:00 4,7 2,2 4,3 8 5 29 15 N 1025,2 40 0 0,0
12.12.2018 02:00:00 4,5 1,8 4,1 10 5 26 14 NNW 1025,1 39 0 0,0
12.12.2018 01:00:00 4,8 1,7 4,3 17 9 31 17 NW 1024,9 46 0 0,0
12.12.2018 00:00:00 4,9 2,1 4,4 18 10 28 15 NNW 1024,5 52 0 0,0
11.12.2018 23:00:00 4,9 1,9 4,4 18 10 26 14 NNW 1024,1 49 0 0,0
11.12.2018 22:00:00 4,9 1,4 4,3 17 9 23 12 NNW 1023,8 54 0 0,0
11.12.2018 21:00:00 4,9 1,5 4,5 9 5 22 12 NNO 1023,7 58 0 0,0
11.12.2018 20:00:00 4,9 0,8 4,4 8 4 32 17 N 1023,2 70 0 0,0
11.12.2018 19:00:00 5,2 1,9 4,7 20 11 28 15 NO 1022,8 44 0 0,0
11.12.2018 18:00:00 5,2 1,0 4,8 9 5 27 14 NNW 1022,2 64 0 0,0
11.12.2018 17:00:00 5,4 1,5 4,9 11 6 31 17 NNW 1021,5 68 0 0,0
11.12.2018 16:00:00 5,7 2,3 4,4 16 9 36 20 NW 1021,1 39 36 0,0
11.12.2018 15:00:00 6,0 2,7 5,4 27 15 41 22 NNW 1020,7 25 48 0,0
11.12.2018 14:00:00 5,8 2,1 4,7 30 16 38 21 NW 1020,3 50 40 0,0
11.12.2018 13:00:00 6,3 1,9 6,6 26 14 34 19 NNW 1020,0 22 60 0,0
11.12.2018 12:00:00 6,1 1,9 6,1 24 13 35 19 NNW 1019,8 23 58 0,0
11.12.2018 11:00:00 6,2 1,8 5,6 26 14 34 18 NNW 1019,6 35 60 0,0
11.12.2018 10:00:00 5,8 1,8 4,2 23 13 32 18 NW 1019,1 30 52 0,0
11.12.2018 09:00:00 5,8 1,8 4,1 25 13 33 18 NW 1018,4 39 0 0,0
11.12.2018 08:00:00 5,9 2,4 4,3 26 14 36 19 NNW 1017,9 31 0 0,0
11.12.2018 07:00:00 6,2 4,0 4,5 27 15 37 20 NNW 1017,5 19 0 0,0
11.12.2018 06:00:00 6,2 4,0 4,6 25 13 37 20 NW 1017,0 17 0 0,0
11.12.2018 05:00:00 6,6 3,9 5,1 33 18 50 27 NW 1016,4 17 0 0,0
11.12.2018 04:00:00 6,8 3,4 5,4 32 17 54 29 NW 1016,3 20 0 0,0
11.12.2018 03:00:00 6,9 3,2 5,4 36 19 55 30 NW 1015,8 20 0 0,0
11.12.2018 02:00:00 7,1 3,1 5,5 41 22 56 31 NW 1015,6 19 0 0,0
11.12.2018 01:00:00 7,1 2,9 6,2 49 27 63 34 NW 1015,5 19 0 0,0

tt = temperatuur
td = dauwpunt
tt 5cm = temperatuur 5cm
ff = windsnelheid
fx = windstoten
dd = windrichting
ppp = luchtdruk
vv = zicht
sd = Zonneschijnduur
rr = neerslag

Weerstations in de omgeving